Starlink 5671

operational
NORAD ID: 55339 Int'l Des: 2023-013 Owner: SPXS Country: US Constellation: starlink
LEOCIRCULAR

About Starlink 5671

Description loading...

Live Position

Loading 3D Globe...

Upcoming Passes

Altitude History

Altitude vs Time

uPlot chart will show altitude changes over time

Two-Line Element Set

1 55339U 23013J 26033.63224328 .00002522 00000-0 20168-3 0 9999
2 55339 43.0031 131.0163 0001297 273.5493 86.5201 15.02537629166437
Epoch: Feb 2, 2026 • Age: 11 hours

Current Status

Altitude 571.1 km
Velocity 7.58 km/s
Sub-Earth Point -41.98°S, 139.35°W
Launch Date Jan 26, 2023
Age 3 years
Type internet

Technical Details

Classification Payload
Mass 305.00 kg
Dry Mass 290.00 kg
Total Mass 305.00 kg
Length 0.20 m
Diameter 2.80 m
Span 9.00 m
Shape Box + pan
Manufacturer SPXS
Bus Type Starlink
Phase Status In Orbit
Owner/State SPXS/US

Large Constellations

Loading constellations...